{"data":{"norad_id":66941,"intl_designator":"2025-286S","name":"STARLINK-36088","alt_names":[],"object_type":"PAYLOAD","status":"ACTIVE","operator":null,"country":"US","launch_date":"2025-12-07","launch_site_code":"AFWTR","launch_vehicle":null,"mission":null,"orbit_class":"UNKNOWN","rcs_meters":null,"size_class":null,"mass_kg":null,"dimensions":null,"purposes":["comms"],"wikipedia_slug":null,"has_3d_model":false,"image_url":null,"decayed_at":null,"tle_current":{"epoch":"2026-05-25T00:35:06.064800Z","epoch_age_seconds":68896,"freshness":"FRESH","line1":"1 66941U 25286S   26145.02437575  .00021612  00000+0  64895-3 0  9996","line2":"2 66941  53.1585   3.1936 0000992  83.8847 276.2269 15.34398180 27112","mean_motion":15.3439818,"eccentricity":9.92e-5,"inclination_deg":53.1585,"raan_deg":3.1936,"arg_perigee_deg":83.8847,"mean_anomaly_deg":276.2269,"bstar":0.00064895,"rev_number":2711,"period_min":93.847869397238,"perigee_km":462.03003774756,"apogee_km":463.38726152444,"semimajor_km":6840.845649636,"source":"CELESTRAK","updated_at":"2026-05-25T13:38:21.388744Z"}}}